[Iaude] MPEC L122: 2024 LN3 [a=2.73,e=0.54,i=13.2,H=20.4]
    mpec at cfa.harvard.edu 
    mpec at cfa.harvard.edu
       
    Tue Jun 11 14:57:36 EDT 2024
    
    
  
M.P.E.C. 2024-L122                                Issued 2024 June 11, 18:56 UT
     The Minor Planet Electronic Circulars contain information on unusual
         minor planets, routine data on comets and natural satellites,
         and occasional editorial announcements.  They are published
    on behalf of Division F of the International Astronomical Union by the
          Minor Planet Center, Smithsonian Astrophysical Observatory,
                          Cambridge, MA 02138, U.S.A.
			  
             Prepared using the Tamkin Foundation Computer Network
                              MPC at CFA.HARVARD.EDU
            URL https://www.minorplanetcenter.net/    ISSN 1523-6714
                                    2024 LN3                                    
Observations:
     K24L03N 1C2024 06 05.40114 21 27 51.95 +01 43 25.3          21.5 GVEL122G96
     K24L03N 1C2024 06 05.41072 21 27 53.86 +01 43 28.5          21.4 GVEL122G96
     K24L03N* C2024 06 07.52950621 35 14.700+01 54 00.42         21.90wXEL122F52
     K24L03N  C2024 06 07.54202721 35 17.239+01 54 04.13         21.43wXEL122F52
     K24L03N  C2024 06 07.55449821 35 19.795+01 54 07.48         21.62wXEL122F52
     K24L03N  C2024 06 07.56702321 35 22.357+01 54 10.95         21.60wXEL122F52
     K24L03N KC2024 06 08.44102 21 38 25.97 +01 58 04.6          21.5 RVEL122291
     K24L03N KC2024 06 08.44400 21 38 26.58 +01 58 05.0          21.4 RVEL122291
     K24L03N KC2024 06 08.44699 21 38 27.19 +01 58 05.7          21.7 RVEL122291
     K24L03N KC2024 06 11.43014721 49 01.805+02 09 39.35         21.34GVEL122I52
     K24L03N KC2024 06 11.43480621 49 02.777+02 09 40.36         21.11GVEL122I52
     K24L03N KC2024 06 11.43946021 49 03.760+02 09 41.72         21.01GVEL122I52
     K24L03N KC2024 06 11.44678421 49 05.293+02 09 42.84         21.22GVEL122I52
     K24L03N 3C2024 06 11.58933121 49 35.814+02 10 14.53         21.35GVEL122T14
     K24L03N 3C2024 06 11.59031321 49 36.019+02 10 14.72         21.43GVEL122T14
     K24L03N 3C2024 06 11.59152521 49 36.275+02 10 14.98         21.45GVEL122T14
Observer details:
291 LPL/Spacewatch II.  Observer R. A. Mastaler.  1.8-m f/2.7 reflector + CCD.
F52 Pan-STARRS 2, Haleakala.  Observers J. Herman, T. Lowe, P. Minguez, A.
    Schultz, I. Smith.  Measurers K. Chambers, T. de Boer, J. Fairlamb, H.
    Gao, M. Huber, C.-C. Lin, E. Magnier, Y. Ramanjooloo, R. Wainscoat, R.
    Weryk.  1.8-m Ritchey-Chretien + CCD.
G96 Mt. Lemmon Survey.  Observer G. J. Leonard.  Measurers B. Gray, D. Rankin,
    F. C. Shelly.  1.5-m reflector + 10K CCD.
I52 Steward Observatory, Mt. Lemmon Station.  Observer J. B. Fazekas.
    Measurers T. Beuden, V. F. Carvajal, D. Fay, J. B. Fazekas, D. C. Fuls, A.
    R. Gibbs, A. D. Grauer, H. Groeller, J. K. Hogan, R. A. Kowalski, S. M.
    Larson, G. J. Leonard, D. Rankin, R. L. Seaman, F. C. Shelly, K. W.
    Wierzchos.  1.0-m prime focus + CCD.
T14 Canada-France-Hawaii Telescope, Maunakea.  Observers R. Wainscoat, A.
    Acohido, H. Flewelling.  Measurers R. Weryk, R. Wainscoat.  3.6-m f/4.1
    reflector + CCD.
Orbital elements:
2024 LN3                                                 Earth MOID = 0.2445 AU
Epoch 2024 Mar. 31.0 TT = JDT 2460400.5                 MPC                     
M 336.09013              (2000.0)            P               Q                  
n   0.21854660     Peri.  182.53953     +0.69696116     +0.69670178             
a   2.7296482      Node   131.71354     -0.65385903     +0.71466961             
e   0.5389323      Incl.   13.15258     -0.29447157     +0.06208037             
P   4.51           H   20.44          G   0.15           U   9                  
Residuals in seconds of arc
240605 G96  0.2+  0.1-    240608 291  0.1+  0.4+    240611 I52  0.1+  0.0
240605 G96  0.2-  0.1+    240608 291  0.0   0.0     240611 T14  0.2-  0.0
240607 F52  0.1+  0.1-    240608 291  0.1-  0.1-    240611 T14  0.2-  0.1-
240607 F52  0.2-  0.1+    240611 I52  0.1+  0.1-    240611 T14  0.1-  0.0
240607 F52  0.1-  0.0     240611 I52  0.0   0.1-
240607 F52  0.0   0.1-    240611 I52  0.2+  0.3+
Ephemeris:
2024 LN3                 a,e,i = 2.73, 0.54, 13                  q = 1.2586
Date    TT    R. A. (2000) Decl.     Delta      r    Elong.  Phase     V
2024 05 12    20 10 35.3 -01 18 38   0.8121  1.4598   105.9    41.7    22.4
...
2024 05 27    20 56 30.6 +00 43 43   0.6813  1.3860   108.2    44.0    22.0
...
2024 06 04    21 23 03.3 +01 35 55   0.6221  1.3521   109.0    45.2    21.8
...
2024 06 10    21 43 55.6 +02 04 36   0.5827  1.3295   109.6    46.0    21.6
2024 06 11    21 47 29.1 +02 08 18   0.5765  1.3260   109.7    46.1    21.6
2024 06 12    21 51 03.8 +02 11 39   0.5705  1.3226   109.8    46.2    21.6
...
2024 06 18    22 12 59.0 +02 23 58   0.5369  1.3038   110.3    46.9    21.4
...
2024 06 26    22 43 12.2 +02 16 44   0.4990  1.2834   111.1    47.6    21.3
...
2024 07 11    23 40 49.8 +00 36 40   0.4485  1.2613   113.0    47.9    21.0
A. U. Tomatic                (C) Copyright 2024 MPC           M.P.E.C. 2024-L122
    
    
More information about the Iaude
mailing list